Location: Br�ttisellen
(47.4227°N, 8.6287°E)
Time: 23:40:17
(UTC+00:00)

BREEZE M DEB (TANK) - Pass Details

Date: 09 April 2020
Orbit: 303 x 11878 km, 49.5° (Epoch: 02 June)

Event Time Altitude Azimuth Distance (km) Brightness Sun altitude
Rises 19:16:06 0° 211° (SSW) 2,199 5.5 -11.8°
Reaches altitude 10° 19:17:36 10° 200° (SSW) 1,568 4.6 -12.1°
Maximum altitude 19:20:29 34° 131° (SE) 1,127 3.4 -12.5°
Drops below altitude 10° 19:27:16 10° 70° (ENE) 3,765 6.2 -13.5°
Sets 19:33:11 0° 64° (ENE) 6,256 7.3 -14.4°
